COSMOS 2533 (43867 NORAD) Tracking and Keplerian Element Data

This shows tracking and keplerian element data for the satellite.

Feedback or suggestion? Click here.




ElementValue
Catalog43867
NameCOSMOS 2533
Epoch Orbit205
Epoch Day194.09240296
Epoch Year2019
RAAN112.2988
Inclination0.0354
Eccentricity7.67E-05
Argument of Perigee125.4472
Mean Anonmoly156.1221
Mean Motion1.00271726
Decay Rate-4.9E-07
L11 43867U 18107A 19194.09240296 -.00000049 00000-0 00000+0 0 9994
L22 43867 0.0354 112.2988 0000767 125.4472 156.1221 1.00271726 2059

Live tracking and technical data element details for COSMOS 2533 (NORAD 43867). COSMOS 2533 can be tracked NOW for your location showing map with azimuth and elevation plus other details from your city location.

Track the satellite on the map from your city or location and see movement details for azimuth, elevation, latitude, longitude, range, height, and movement on the map or in text.







IsCatalogInMostPopularTable: catalog: 43867, numindb: 59
Update: records affected: 1



GetName: 43867 COSMOS 2533

Hit Count: updated at: Tue, 16 Jul 2019 14:58:12 GMT